This is the latest recevied weather packets stored in our database for station/object W6MAF. If no packets are shown the sender has not sent any weather packets the latest 10 day(s).
| Time | Temp. | Humidity | Pressure | Rain* | Wind** | Luminosity | Snow |
|---|---|---|---|---|---|---|---|
| 1777304013 | 6.11° C | 84% | - | 0 mm | 0.89 m/s, 194° | - | - |
| 1777303775 | 6.11° C | 86% | - | 0 mm | 2.24 m/s, 203° | - | - |
| 1777303716 | 6.11° C | 86% | - | 0 mm | 2.24 m/s, 203° | - | - |
| 1777303418 | 6.11° C | 86% | - | 0 mm | 0.45 m/s, 219° | - | - |
| 1777303120 | 6.11° C | 86% | - | 0 mm | 0.45 m/s, 221° | - | - |
| 1777302823 | 6.11° C | 87% | - | 0 mm | 0.45 m/s, 219° | - | - |
| 1777302522 | 6.11° C | 86% | - | 0 mm | 0 m/s | - | - |
| 1777302224 | 6.11° C | 85% | - | 0 mm | 0 m/s | - | - |
| 1777301926 | 6.11° C | 84% | - | 0 mm | 0.45 m/s, 193° | - | - |
| 1777301629 | 6.11° C | 84% | - | 0 mm | 1.79 m/s, 200° | - | - |
| 1777301331 | 6.11° C | 85% | - | 0 mm | 1.79 m/s, 188° | - | - |
| 1777301033 | 6.11° C | 85% | - | 0 mm | 4.47 m/s, 204° | - | - |
| 1777300732 | 6.11° C | 86% | - | 0 mm | 3.13 m/s, 200° | - | - |
| 1777300436 | 5.56° C | 86% | - | 0 mm | 4.47 m/s, 204° | - | - |
| 1777300137 | 5.56° C | 88% | - | 0 mm | 2.68 m/s, 205° | - | - |
| 1777299839 | 5.56° C | 90% | - | 0 mm | 3.13 m/s, 187° | - | - |
| 1777299542 | 5° C | 91% | - | 0 mm | 6.26 m/s, 203° | - | - |
| 1777299244 | 5° C | 93% | - | 0 mm | 6.26 m/s, 208° | - | - |
| 1777298943 | 5° C | 94% | - | 0 mm | 3.13 m/s, 219° | - | - |
| 1777298646 | 5° C | 94% | - | 0 mm | 4.47 m/s, 205° | - | - |
| 1777298353 | 4.44° C | 94% | - | 0 mm | 4.47 m/s, 211° | - | - |
| 1777298349 | 4.44° C | 94% | - | 0 mm | 4.47 m/s, 211° | - | - |
| 1777298050 | 4.44° C | 94% | - | 0 mm | 4.92 m/s, 229° | - | - |
| 1777297753 | 4.44° C | 94% | - | 0 mm | 5.36 m/s, 240° | - | - |
| 1777297455 | 4.44° C | 93% | - | 0 mm | 5.81 m/s, 214° | - | - |
* Rain latest hour (hover to see other rain measurements)
** Current wind speed in m/s (hover to see current wind gust speed)